This demonstration page uses our WeatherBlox Daily Observations layout. Learn more.

Left ArrowRight Arrow

Hourly Observations for May 7, 2017

Temp ( °F °C ) Dew Point ( °F °C ) Humidity (%) Winds ( mph kmh ) Pressure ( in mb ) Visibility ( mi km ) Precip ( " mm )
12:54 am 00:54 Clear 60 15.6 41 5 50 50 SE 6 9 29.91 1013 10 16.0934 0 0
1:54 am 01:54 Clear 58 14.4 42 5.6 56 56 SSE 6 9 29.92 1013 10 16.0934 0 0
2:54 am 02:54 Clear 59 15 41 5 51 51 SSW 5 7 29.92 1013 10 16.0934 0 0
3:54 am 03:54 Clear 57 13.9 41 5 55 55 S 5 7 29.91 1013 10 16.0934 0 0
4:54 am 04:54 Clear 55 12.8 42 5.6 62 62 S 3 6 29.92 1013 10 16.0934 0 0
5:54 am 05:54 Clear 54 12.2 42 5.6 64 64 S 6 9 29.92 1013 10 16.0934 0 0
6:54 am 06:54 Sunny 53 11.7 43 6.1 69 69 S 7 11 29.94 1014 10 16.0934 0 0
7:54 am 07:54 Sunny 61 16.1 43 6.1 52 52 SSE 10 17 29.94 1014 10 16.0934 0 0
8:54 am 08:54 Sunny 67 19.4 43 6.1 42 42 SSE 17 28 29.93 1014 10 16.0934 0 0
9:54 am 09:54 Sunny 71 21.7 45 7.2 39 39 SSE 15 24 29.93 1014 10 16.0934 0 0
10:54 am 10:54 Sunny 75 23.9 47 8.3 37 37 SSE 14 22 29.92 1013 10 16.0934 0 0
11:54 am 11:54 Sunny 79 26.1 50 10 36 36 SSE 15 24 29.9 1013 10 16.0934 0 0
12:54 pm 12:54 Sunny 82 27.8 51 10.6 34 34 SSE 17 28 29.88 1012 10 16.0934 0 0
1:54 pm 13:54 Sunny 84 28.9 52 11.1 33 33 S 16 26 29.86 1011 10 16.0934 0 0
2:54 pm 14:54 Sunny 85 29.4 50 10 30 30 S 21 33 29.83 1010 10 16.0934 0 0
3:54 pm 15:54 Sunny 86 30 52 11.1 31 31 S 21 33 29.8 1009 10 16.0934 0 0
4:54 pm 16:54 Sunny 87 30.6 53 11.7 31 31 SSE 18 30 29.78 1009 10 16.0934 0 0
5:54 pm 17:54 Sunny 84 28.9 51 10.6 32 32 S 17 28 29.77 1008 10 16.0934 0 0
6:54 pm 18:54 Sunny 84 28.9 50 10 31 31 SSE 15 24 29.76 1008 10 16.0934 0 0
7:54 pm 19:54 Sunny 78 25.6 52 11.1 40 40 SSE 10 17 29.78 1009 10 16.0934 0 0
8:54 pm 20:54 Clear 78 25.6 51 10.6 39 39 SSE 12 19 29.78 1009 10 16.0934 0 0
9:54 pm 21:54 Clear 76 24.4 52 11.1 43 43 SSE 14 22 29.8 1009 10 16.0934 0 0
10:54 pm 22:54 Clear 74 23.3 54 12.2 50 50 SSE 14 22 29.82 1010 10 16.0934 0 0
11:54 pm 23:54 Clear 73 22.8 55 12.8 53 53 SSE 14 22 29.82 1010 10 16.0934 0 0

Powered by AerisWeather